078  
ASUS42 KKEY 090110  
RWRKEY  
 
FLORIDA REGIONAL WEATHER ROUNDUP FOR THE FLORIDA KEYS  
NATIONAL WEATHER SERVICE KEY WEST FLORIDA  
800 PM EST MON FEB 08 2016  
   
..SOUTH FLORIDA AND THE KEYS
 
 
 
CITY SKY/WX TMP DP RH WIND PRES REMARKS
 
FORT MYERS MOCLDY 62 54 74 SW7 29.98S  
SW REGIONAL AP MOCLDY 61 54 77 SW8 29.99S  
NAPLES CLOUDY 64 56 75 SW9 30.00S  
MIAMI PTCLDY 62 50 64 SW7 30.03R  
WEST KENDALL CLEAR 58 51 78 SW7 30.04R  
HOMESTEAD NOT AVBL  
MARATHON PTCLDY 63 53 70 W3 30.05R  
BOCA CHICA NAS MOCLDY 65 52 62 W9 30.06R  
KEY WEST INTL MOCLDY 65 53 65 W7 30.06R  
   
..INTERNATIONAL WEATHER
 
 
 
CITY SKY/WX TMP DP RH WIND PRES REMARKS
 
NASSAU BAHAMAS MOCLDY 64 36 34 SW3 30.06R  
CANCUN MEXICO PTCLDY 64 59 82 NW6 30.15R  
COZUMEL MEXICO MOCLDY 66 59 77 N12 30.14R  
 
ADJACENT COASTAL WATERS...  
 
STATION/POSITION TIME SKY/WX TEMP WIND PRES WAVE
 
AIR SEA DIR/SP/G HT/PER  
(UTC) (F) (DEG/KT/KT) (MB) (FT/S)  
PULASKI SHOAL LI NOT AVBL  
SAND KEY 0050 68 290/ 13/ 15 1018.1R  
SOMBRERO KEY NOT AVBL  
LONG KEY 0000 64 65 250/ 9/ 10 1018.1S  
MOLASSES REEF 0000 63 74 270/ 13/ 14 1017.0F  
FOWEY ROCKS NOT AVBL  
 

 
 
 
CLICK HERE TO GO TO PREVIOUS BULLETINS.

The Nexlab FL Page Main Text Page